STARLINK-3840 (52466 NORAD) Tracking and Keplerian Element Data
This shows tracking and keplerian element data for the satellite.
Feedback or suggestion? Click here.
Element | Value |
Catalog | 52466 |
Name | STARLINK-3840 |
Epoch Orbit | 130 |
Epoch Day | 167.08334491 |
Epoch Year | 2022 |
RAAN | 65.0047 |
Inclination | 53.2167 |
Eccentricity | 0.0002019 |
Argument of Perigee | 26.3777 |
Mean Anonmoly | 111.1952 |
Mean Motion | 15.73221852 |
Decay Rate | 0.00041821 |
L1 | 1 52466U 22049R 22167.08334491 .00041821 00000+0 30062-3 0 9999 |
L2 | 2 52466 53.2167 65.0047 0002019 26.3777 111.1952 15.73221852 1305 |
Live tracking and technical data element details for STARLINK-3840 (NORAD 52466). STARLINK-3840 can be tracked NOW for your location showing map with azimuth and elevation plus other details from your city location.
Track the satellite on the map from your city or location and see movement details for azimuth, elevation, latitude, longitude, range, height, and movement on the map or in text.
IsCatalogInMostPopularTable: catalog: 52466, numindb: 2
Update: records affected: 1
GetName: 52466 STARLINK-3840
Hit Count: updated at: Mon, 27 Jun 2022 06:31:53 GMT